Location: Buch
(50.1863°N, 11.0141°E)
Time: 19:17:32
(UTC+00:00)

Lacrosse 5 rocket - Pass Details

Date: 18 January 2020
Orbit: 465 x 632 km, 57.0° (Epoch: 16 February)

Event Time Altitude Azimuth Distance (km) Brightness Sun altitude
Exits shadow 03:35:15 25° 64° (ENE) 1,275 3.7 -33.3°
Drops below altitude 10° 03:37:11 10° 60° (ENE) 1,996 4.9 -33.0°
Sets 03:39:28 0° 58° (ENE) 2,889 5.9 -32.7°
